Weather History for Belen, NM

Change the Weather History Date:

Tuesday, May 14, 2013

  Actual Average (KABQ) Record (KABQ)
Temperature  
Mean Temperature 69 °F 65 °F  
Max Temperature 86 °F 78 °F 92 °F (1938)
Min Temperature 52 °F 52 °F 36 °F (1918)
Degree Days  
Heating Degree Days 0 2  
Month to date heating degree days 49  
Since 1 July heating degree days 4153  
Cooling Degree Days 4 2  
Month to date cooling degree days 21  
Year to date cooling degree days 28  
Growing Degree Days 19 (Base 50)    
Moisture  
Dew Point 21 °F    
Average Humidity 17    
Maximum Humidity 30    
Minimum Humidity 9    
Precipitation  
Precipitation 0.00 in 0.02 in 0.48 in (1920)
Month to date precipitation 0.23  
Year to date precipitation 2.27  
Snow  
Snow 0.00 in - - ()
Month to date snowfall  
Since 1 July snowfall  
Snow Depth -    
Sea Level Pressure  
Sea Level Pressure 30.10 in    
Wind  
Wind Speed 8 mph (SSW)    
Max Wind Speed 34 mph    
Max Gust Speed 43 mph    
Visibility 10 miles    
Events      
T = Trace of Precipitation, MM = Missing Value Source: NWS Daily Summary

Daily Weather History Graph

Daily Weather History Graph

Search for Another Location

Airport:

Trip Planner

Search our weather history database for the weather conditions in past years. The results will help you decide how hot, cold, wet, or windy it might be!

Date:

Astronomy

May. 14, 2013 Rise Set
Actual Time 6:05 AM MDT 8:02 PM MDT
Civil Twilight 5:37 AM MDT 8:30 PM MDT
Nautical Twilight 5:03 AM MDT 9:04 PM MDT
Astronomical Twilight 4:27 AM MDT 9:40 PM MDT
Moon 9:46 AM MDT (5/14) 11:53 PM MDT (5/14)
Length of Visible Light 14h 53m
Length of Day
13h 57m
Waxing Crescent, 19% of the Moon is Illuminated
May 14
Waxing Crescent
May 17
First Quarter
May 24
Full
May 31
Last Quarter
Jun 8
New

Hourly Weather History & Observations

Time (MDT) Temp. Dew Point Humidity Pressure Visibility Wind Dir Wind Speed Gust Speed Precip Events Conditions
12:15 AM 61.5 °F 21.9 °F 22% 30.18 in 10.0 mi SSW 4.6 mph - N/A   Clear
12:35 AM 60.8 °F 22.1 °F 23% 30.18 in 10.0 mi SSE 5.8 mph - N/A   Clear
12:55 AM 60.6 °F 19.9 °F 21% 30.17 in 10.0 mi SSE 9.2 mph - N/A   Clear
1:15 AM 63.7 °F 15.8 °F 16% 30.16 in 10.0 mi SSE 10.4 mph - N/A   Clear
1:35 AM 63.7 °F 14.0 °F 15% 30.17 in 10.0 mi SSE 8.1 mph - N/A   Clear
1:55 AM 60.4 °F 13.3 °F 16% 30.17 in 10.0 mi South 8.1 mph - N/A   Clear
2:15 AM 58.3 °F 15.3 °F 19% 30.17 in 10.0 mi South 8.1 mph - N/A   Clear
2:35 AM 58.1 °F 16.3 °F 20% 30.17 in 10.0 mi SSE 5.8 mph - N/A   Clear
2:55 AM 56.3 °F 15.8 °F 20% 30.17 in 10.0 mi SSE 4.6 mph - N/A   Clear
3:15 AM 57.2 °F 13.5 °F 18% 30.17 in 10.0 mi South 3.5 mph - N/A   Clear
3:55 AM 55.8 °F 12.9 °F 18% 30.18 in 10.0 mi Calm Calm - N/A   Clear
4:15 AM 53.1 °F 13.8 °F 21% 30.18 in 10.0 mi SSW 3.5 mph - N/A   Clear
4:35 AM 56.3 °F 14.2 °F 19% 30.17 in 10.0 mi SE 8.1 mph - N/A   Clear
4:55 AM 54.9 °F 13.6 °F 20% 30.18 in 10.0 mi SSE 6.9 mph - N/A   Clear
5:15 AM 54.5 °F 13.5 °F 20% 30.17 in 10.0 mi SSE 4.6 mph - N/A   Clear
5:35 AM 52.9 °F 12.6 °F 20% 30.17 in 10.0 mi SSE 8.1 mph - N/A   Clear
5:55 AM 54.0 °F 12.7 °F 19% 30.16 in 10.0 mi SSE 6.9 mph - N/A   Clear
6:15 AM 52.9 °F 12.9 °F 20% 30.17 in 10.0 mi SSE 5.8 mph - N/A   Clear
6:35 AM 53.8 °F 13.1 °F 20% 30.17 in 10.0 mi SSE 5.8 mph - N/A   Clear
6:55 AM 55.0 °F 13.8 °F 20% 30.18 in 10.0 mi South 5.8 mph - N/A   Clear
7:15 AM 57.4 °F 14.7 °F 19% 30.18 in 10.0 mi South 8.1 mph - N/A   Clear
7:35 AM 59.4 °F 15.6 °F 18% 30.19 in 10.0 mi South 9.2 mph - N/A   Clear
7:55 AM 61.7 °F 17.8 °F 18% 30.18 in 10.0 mi South 9.2 mph - N/A   Clear
8:15 AM 64.4 °F 19.0 °F 18% 30.18 in 10.0 mi South 10.4 mph - N/A   Clear
8:35 AM 67.5 °F 17.6 °F 15% 30.19 in 10.0 mi South 13.8 mph - N/A   Clear
8:55 AM 68.0 °F 17.4 °F 14% 30.19 in 10.0 mi South 11.5 mph - N/A   Clear
9:15 AM 69.6 °F 17.6 °F 14% 30.18 in 10.0 mi South 9.2 mph - N/A   Clear
9:35 AM 71.6 °F 19.0 °F 14% 30.18 in 10.0 mi South 10.4 mph - N/A   Clear
9:55 AM 72.1 °F 17.1 °F 12% 30.17 in 10.0 mi South 10.4 mph - N/A   Clear
10:15 AM 72.7 °F 17.2 °F 12% 30.17 in 10.0 mi South 6.9 mph - N/A   Clear
10:35 AM 74.7 °F 17.2 °F 11% 30.16 in 10.0 mi SSE 6.9 mph - N/A   Clear
10:55 AM 76.5 °F 17.4 °F 11% 30.15 in 10.0 mi South 8.1 mph - N/A   Clear
11:15 AM 77.2 °F 17.6 °F 11% 30.15 in 10.0 mi SSW 3.5 mph - N/A   Clear
11:35 AM 77.0 °F 18.1 °F 11% 30.14 in 10.0 mi SW 4.6 mph - N/A   Clear
11:55 AM 77.7 °F 18.7 °F 11% 30.13 in 10.0 mi Calm Calm - N/A   Clear
12:15 PM 79.9 °F 19.0 °F 10% 30.12 in 10.0 mi SSE 5.8 mph - N/A   Clear
12:35 PM 79.5 °F 19.0 °F 10% 30.11 in 10.0 mi SSW 6.9 mph - N/A   Clear
12:55 PM 80.6 °F 19.4 °F 10% 30.10 in 10.0 mi Calm Calm - N/A   Clear
1:15 PM 82.2 °F 19.8 °F 10% 30.08 in 10.0 mi South 5.8 mph - N/A   Clear
1:35 PM 82.6 °F 19.6 °F 10% 30.07 in 10.0 mi SE 6.9 mph - N/A   Clear
1:55 PM 83.1 °F 19.8 °F 10% 30.06 in 10.0 mi South 9.2 mph - N/A   Clear
2:15 PM 82.9 °F 19.9 °F 10% 30.05 in 10.0 mi Calm Calm - N/A   Clear
2:35 PM 84.9 °F 20.3 °F 9% 30.04 in 10.0 mi SSW 6.9 mph - N/A   Clear
2:55 PM 86.7 °F 20.8 °F 9% 30.03 in 10.0 mi Calm Calm - N/A   Clear
3:15 PM 83.3 °F 20.3 °F 10% 30.02 in 10.0 mi WNW 3.5 mph - N/A   Clear
3:35 PM 84.4 °F 20.8 °F 10% 30.01 in 10.0 mi WSW 3.5 mph - N/A   Clear
3:55 PM 85.3 °F 20.8 °F 9% 30.00 in 10.0 mi Calm Calm - N/A   Clear
4:15 PM 83.1 °F 20.3 °F 10% 29.99 in 10.0 mi WNW 4.6 mph - N/A   Clear
4:35 PM 82.8 °F 20.3 °F 10% 29.98 in 10.0 mi Calm Calm - N/A   Clear
4:55 PM 84.0 °F 20.7 °F 10% 29.98 in 10.0 mi SSW 3.5 mph - N/A   Clear
5:15 PM 84.0 °F 20.3 °F 10% 29.97 in 10.0 mi SSE 9.2 mph - N/A   Clear
5:35 PM 84.6 °F 20.8 °F 10% 29.97 in 10.0 mi SW 10.4 mph - N/A   Clear
5:55 PM 84.7 °F 20.1 °F 9% 29.97 in 10.0 mi SE 4.6 mph - N/A   Clear
6:15 PM 85.1 °F 19.9 °F 9% 29.96 in 10.0 mi SW 4.6 mph - N/A   Clear
6:35 PM 83.5 °F 21.9 °F 10% 29.96 in 10.0 mi West 13.8 mph - N/A   Clear
7:15 PM 78.1 °F 27.1 °F 15% 29.99 in 10.0 mi WNW 21.9 mph 31.1 mph N/A   Clear
7:35 PM 76.3 °F 30.6 °F 19% 30.00 in 10.0 mi West 28.8 mph 40.3 mph N/A   Mostly Cloudy
7:55 PM 75.2 °F 31.5 °F 20% 30.02 in 10.0 mi WNW 24.2 mph 40.3 mph N/A   Mostly Cloudy
8:15 PM 73.4 °F 33.4 °F 23% 30.03 in 10.0 mi WNW 34.5 mph 42.6 mph N/A   Scattered Clouds
8:35 PM 71.2 °F 35.8 °F 27% 30.05 in 10.0 mi West 24.2 mph 38.0 mph N/A   Mostly Cloudy
8:55 PM 70.5 °F 37.2 °F 30% 30.07 in 10.0 mi West 19.6 mph 33.4 mph N/A   Overcast
9:15 PM 70.7 °F 35.2 °F 27% 30.07 in 10.0 mi WNW 20.7 mph 25.3 mph N/A   Scattered Clouds
9:35 PM 70.9 °F 35.2 °F 27% 30.07 in 10.0 mi NW 16.1 mph 25.3 mph N/A   Clear
9:55 PM 70.3 °F 36.7 °F 29% 30.08 in 10.0 mi NW 15.0 mph 20.7 mph N/A   Clear
10:15 PM 70.2 °F 36.5 °F 29% 30.07 in 10.0 mi NW 17.3 mph - N/A   Clear
10:35 PM 70.0 °F 35.8 °F 29% 30.07 in 10.0 mi WNW 13.8 mph 20.7 mph N/A   Clear
10:55 PM 70.2 °F 35.6 °F 28% 30.06 in 10.0 mi NW 15.0 mph - N/A   Clear
11:15 PM 70.3 °F 35.4 °F 28% 30.05 in 10.0 mi WNW 18.4 mph 23.0 mph N/A   Clear
11:35 PM 70.7 °F 34.7 °F 27% 30.05 in 10.0 mi WNW 11.5 mph - N/A   Scattered Clouds
11:55 PM 71.1 °F 34.2 °F 26% 30.05 in 10.0 mi WNW 9.2 mph - N/A   Mostly Cloudy